{"data":{"norad_id":65379,"epoch":"2026-05-25T02:24:12.355200Z","epoch_age_seconds":76839,"freshness":"FRESH","line1":"1 65379U 25191A   26145.10014300  .00004389  00000+0  30794-3 0  9994","line2":"2 65379  97.4501  16.4125 0002432  76.9333 283.2166 15.05661116 41767","mean_motion":15.05661116,"eccentricity":0.0002432,"inclination_deg":97.4501,"raan_deg":16.4125,"arg_perigee_deg":76.9333,"mean_anomaly_deg":283.2166,"bstar":0.00030794,"rev_number":4176,"period_min":95.639050826096,"perigee_km":547.79226128228,"apogee_km":551.16185275961,"semimajor_km":6927.6140570209,"source":"CELESTRAK","updated_at":"2026-05-25T13:38:20.771420Z"}}